Theta_e
346 345 348 348 346 345 344 342 342 344 344 346 347 346 346 346 346 346 345 344 344 343 343 343 342 342 342 341 343 343 341 341 339 336 337 338 336 336 337 337 336 331 332 338 337 336 339 338 336 337 337 337 336 337 338 336 336 338 338 337 338 338 337 337 337 337 335 334 333 333 332 332 332 332 332 331 327 324 323 323 322 322 320 319 319
347 348 347 347 347 345 345 346 346 347 349 349 348 347 346 346 345 346 345 344 344 343 343 342 341 341 341 341 343 342 342 341 339 337 338 338 336 336 337 337 336 331 331 337 336 333 339 341 340 340 340 340 340 339 339 340 339 339 339 339 339 338 337 337 338 336 334 334 332 332 332 332 332 331 332 331 329 325 322 323 322 321 320 317 315
346 347 347 346 346 346 347 350 351 351 351 349 348 347 346 346 345 345 345 344 344 343 343 342 341 341 341 341 342 343 342 340 338 338 339 338 336 336 337 337 336 331 332 337 336 333 337 342 342 342 342 342 343 342 342 342 341 340 340 339 339 338 336 337 338 336 334 333 332 334 333 332 332 332 331 332 331 328 324 323 322 321 320 317 314
347 344 345 346 346 346 348 352 353 353 352 350 348 347 346 345 345 345 345 344 343 343 342 342 341 341 341 340 341 342 342 340 338 337 339 339 336 335 337 337 335 332 334 338 338 337 338 340 342 342 343 344 343 342 343 342 341 341 341 340 338 337 336 337 337 336 334 333 333 334 332 332 336 334 330 331 331 331 327 323 323 321 319 317 315
345 345 344 345 348 348 349 353 354 353 352 350 348 347 347 345 345 345 344 343 343 343 342 341 341 341 340 340 340 341 341 340 338 337 339 339 336 335 336 337 335 334 336 339 339 340 341 340 342 342 343 344 343 342 343 343 342 342 341 340 338 336 336 336 337 335 334 333 333 334 333 335 338 333 330 332 330 331 329 324 322 322 320 318 316
339 344 344 346 349 350 351 353 354 353 352 351 349 348 347 346 345 344 344 344 343 342 342 341 341 341 340 340 340 341 340 339 339 338 339 339 336 335 336 337 337 335 336 339 340 340 340 341 341 342 342 343 343 342 343 343 343 342 340 339 338 337 336 336 336 335 334 333 332 333 334 336 335 332 332 334 331 330 331 327 323 321 321 320 317
333 340 344 346 349 351 353 354 353 353 352 351 349 348 347 345 345 344 344 343 343 342 342 341 341 341 340 340 340 341 340 339 339 338 339 339 336 334 336 338 338 337 335 337 340 339 339 340 341 342 342 342 342 343 342 343 343 342 340 339 338 337 336 336 336 335 335 334 332 332 332 333 333 332 332 334 334 331 330 328 325 322 322 321 319
329 338 343 347 349 350 353 354 353 353 352 352 350 348 347 346 345 344 344 344 343 342 342 341 341 341 340 340 340 340 340 340 339 338 339 339 336 333 336 338 339 339 337 336 338 339 339 340 341 342 343 342 342 342 342 342 343 342 341 339 338 337 336 336 336 336 335 335 333 333 332 333 334 332 331 332 333 333 331 329 327 324 322 322 320
324 334 340 346 349 349 351 353 353 352 352 351 351 349 347 346 346 345 344 344 343 343 342 342 341 342 341 341 340 340 340 340 339 338 339 340 336 332 335 338 340 339 338 337 338 338 338 340 341 341 342 342 341 342 343 342 342 342 342 339 339 338 337 336 335 335 335 335 335 334 334 334 334 334 332 331 330 332 332 329 327 324 322 322 321
321 331 337 343 348 349 350 352 352 352 352 351 351 350 348 346 346 345 345 344 344 343 342 342 342 342 342 342 341 340 339 340 340 339 339 340 336 332 333 336 339 340 339 338 338 338 338 339 340 341 342 343 342 342 343 342 342 343 342 340 339 339 338 336 335 335 335 335 336 335 335 335 335 334 333 332 330 330 331 328 325 323 322 321 322
320 328 334 338 345 350 350 351 352 351 351 352 351 350 349 347 346 346 345 344 345 344 343 343 343 343 342 342 341 341 339 339 341 340 340 341 338 334 332 333 337 340 340 339 338 339 338 338 339 341 342 342 343 343 342 342 342 343 343 341 340 339 339 338 336 336 335 335 336 335 335 335 335 334 333 333 331 329 331 329 324 323 322 322 322
319 325 331 335 340 347 351 350 351 352 352 351 351 351 350 348 346 346 346 345 345 345 344 343 344 343 343 342 342 342 340 339 341 341 340 342 341 337 335 333 335 338 339 339 339 339 339 338 339 340 341 342 342 343 342 342 341 342 343 342 341 340 339 338 337 336 336 336 335 335 336 335 335 334 333 333 332 330 330 329 325 324 323 322 322
318 322 328 335 338 341 348 351 350 351 352 351 351 351 350 349 348 346 346 346 346 345 345 344 344 344 343 343 342 341 341 339 340 341 341 341 342 340 338 336 336 338 339 339 339 339 339 339 339 340 340 341 341 342 342 341 341 342 343 342 341 340 339 338 337 337 336 335 336 336 335 335 335 334 333 333 331 330 328 328 327 326 323 322 323
318 318 321 337 344 338 341 348 350 350 351 351 351 351 351 350 348 347 347 346 346 346 346 344 344 344 343 343 342 341 341 340 340 341 342 341 342 341 339 338 337 338 339 339 339 338 338 339 339 340 340 341 341 342 341 341 341 341 342 342 341 340 339 338 337 337 336 335 335 335 335 335 334 334 333 332 330 330 329 328 328 329 326 323 322
318 318 315 331 348 343 337 344 349 350 350 350 350 350 350 350 349 348 347 347 347 346 346 345 344 344 344 344 343 342 341 340 340 341 342 341 342 342 341 339 338 338 338 338 339 338 338 338 339 340 340 341 342 341 341 341 341 341 342 342 341 340 339 339 338 337 336 335 335 335 335 335 334 333 333 332 331 330 330 329 330 332 331 326 321
316 319 316 323 338 340 337 342 346 348 351 350 350 350 350 350 349 349 348 347 347 347 346 345 344 344 345 345 344 342 342 342 341 341 343 342 342 342 342 341 339 338 338 338 338 338 338 338 339 340 340 341 342 342 341 341 341 341 342 341 341 340 340 339 338 337 336 335 334 335 335 335 334 333 333 332 331 331 330 330 330 330 333 332 325
315 319 321 323 328 329 331 338 343 345 350 351 349 349 349 349 349 349 349 349 348 347 347 347 346 345 345 346 345 343 342 343 342 342 342 343 343 342 343 342 341 340 339 338 338 338 338 339 339 340 341 340 341 342 341 341 341 341 341 341 341 340 340 339 338 337 336 336 335 336 335 334 334 333 333 332 331 332 331 330 331 329 330 333 330
315 317 319 322 324 323 322 330 339 343 347 350 350 350 349 349 349 348 348 348 349 348 348 347 347 346 346 346 346 344 343 343 343 343 342 343 343 343 343 343 342 341 340 339 340 339 339 340 340 341 341 341 341 342 342 341 341 341 341 341 341 340 340 339 338 338 337 336 337 337 335 334 333 333 332 332 332 332 331 330 331 330 329 330 329
314 315 317 319 322 320 315 321 332 338 342 344 347 349 349 348 348 348 348 348 348 349 348 348 348 347 347 346 346 345 345 344 344 344 343 343 344 344 343 343 343 342 341 340 341 341 340 340 340 341 341 341 341 341 342 341 341 341 341 341 341 340 340 339 338 338 337 337 337 336 334 333 333 332 332 333 332 332 332 331 331 330 329 329 327
317 317 316 317 319 318 316 321 326 331 337 339 342 346 348 349 349 347 348 348 349 349 348 349 348 347 347 347 346 346 345 345 345 345 344 344 344 344 344 344 343 343 342 341 342 341 341 341 341 341 341 342 341 341 342 342 341 341 341 341 340 340 339 339 339 338 337 336 336 334 334 333 333 333 333 333 332 332 332 331 331 330 329 329 326
320 321 319 320 324 322 321 326 328 332 338 341 344 344 341 343 347 348 348 347 348 349 348 348 348 348 348 347 347 347 347 346 346 345 345 345 345 344 344 344 344 344 343 342 342 342 342 341 341 341 341 341 341 341 341 342 341 341 341 340 340 339 339 339 338 338 336 335 334 333 333 332 332 333 333 332 332 331 332 331 330 330 328 328 326
322 322 320 324 331 329 324 324 325 332 338 339 341 338 332 333 340 343 346 348 348 347 348 348 348 348 348 347 347 347 348 348 347 346 346 346 346 345 344 344 344 344 344 343 343 342 342 342 341 341 341 341 341 341 342 342 342 341 341 340 339 338 338 338 337 336 335 334 334 333 332 331 331 331 331 331 330 330 331 331 330 329 328 327 325
322 321 319 323 327 325 322 321 321 326 332 334 335 333 330 333 337 338 341 347 348 348 348 347 347 348 348 348 348 347 348 348 348 348 347 346 346 346 345 345 344 345 345 344 344 343 342 342 342 341 341 341 342 341 342 342 342 342 341 340 339 338 338 337 336 335 335 334 333 332 332 331 331 331 330 329 329 330 330 330 330 329 327 325 324
319 319 323 327 324 320 321 321 320 321 323 328 331 332 330 332 337 340 342 347 350 349 348 348 347 347 348 348 349 348 348 349 349 348 348 347 347 346 346 346 345 345 345 344 344 343 343 343 342 342 341 341 341 341 342 342 342 342 341 339 339 338 337 336 336 335 334 333 332 331 331 331 332 332 331 330 330 329 329 328 328 327 326 325 322
316 317 321 323 322 324 324 321 318 319 320 321 325 330 332 332 336 341 345 350 351 350 350 349 348 348 348 349 349 349 349 350 349 349 349 348 347 346 346 346 346 345 345 345 344 344 343 343 342 342 342 341 341 341 342 342 342 342 341 340 339 338 337 336 335 334 334 333 332 331 330 330 331 331 330 330 329 328 327 326 326 324 323 323 321
314 316 319 320 323 326 325 320 318 319 320 320 321 325 329 332 333 335 341 346 346 348 350 350 348 348 348 348 349 350 350 350 349 349 349 348 348 347 346 346 346 345 345 345 345 344 343 343 343 342 342 341 341 341 342 342 342 342 341 340 339 338 337 335 335 334 333 332 332 331 330 330 330 329 329 328 328 326 325 325 324 322 321 320 318
312 315 320 320 321 321 322 321 318 317 319 319 319 320 322 326 329 330 336 342 344 346 349 349 349 348 348 348 348 348 349 349 349 349 349 349 348 347 347 346 346 346 345 345 344 344 344 343 342 342 341 342 341 341 341 342 342 342 341 340 338 338 336 335 334 334 333 332 331 331 330 330 329 329 328 328 327 326 325 324 322 320 319 318 316
312 313 317 319 321 322 325 324 318 316 318 318 318 319 319 320 323 325 330 337 342 345 347 347 347 347 347 347 347 348 348 348 349 349 349 349 349 348 347 346 346 346 346 345 345 344 344 343 343 342 342 341 341 341 341 341 341 341 341 339 338 337 336 335 334 333 332 332 331 330 330 330 329 329 328 328 327 326 325 323 320 318 317 315 313
313 312 313 314 318 320 323 324 319 316 316 317 317 318 318 318 319 320 322 326 332 339 344 344 344 345 345 346 347 347 346 346 347 348 349 349 349 348 348 347 347 346 345 345 345 344 344 343 343 342 342 341 341 340 340 340 340 340 340 339 338 337 336 335 334 333 332 332 331 330 330 329 329 328 327 327 326 325 325 322 318 316 314 312 312
314 314 313 312 315 317 320 322 320 315 315 317 317 318 318 319 318 319 320 321 323 330 338 341 341 341 343 344 345 345 343 341 342 346 348 349 349 349 348 348 347 347 346 345 345 344 344 343 342 342 341 341 341 340 340 340 340 340 340 339 337 336 335 334 333 333 332 331 331 330 329 328 328 327 326 325 325 324 324 322 318 315 312 310 311
314 315 314 312 313 316 318 320 319 315 315 317 317 317 319 319 319 320 320 321 321 324 331 337 339 339 339 340 341 340 339 338 340 345 348 349 348 348 348 348 348 347 346 345 345 344 344 343 342 342 341 341 341 340 340 339 340 340 339 338 337 336 335 334 333 333 332 331 330 329 329 328 327 325 324 324 323 322 322 321 318 315 311 310 311
313 314 314 313 313 313 316 318 316 313 314 316 317 318 319 320 321 322 322 323 323 323 325 330 336 339 338 339 339 338 339 341 343 347 348 349 348 348 348 348 348 348 347 345 345 344 344 343 342 342 341 341 341 340 340 339 339 340 340 338 337 336 335 334 333 332 331 331 330 329 328 327 325 324 323 322 322 321 320 318 316 313 311 310 310
313 313 314 314 314 313 314 314 312 312 315 318 319 320 321 322 323 324 324 324 324 325 325 325 329 335 338 339 339 340 342 345 347 348 348 348 348 348 348 348 348 348 347 346 345 344 344 343 342 342 342 341 341 340 340 339 339 339 339 339 337 336 335 333 332 332 331 330 330 328 327 325 324 322 322 321 321 320 318 315 313 311 310 310 311
312 313 314 314 314 314 313 312 313 316 319 321 322 323 323 323 324 324 324 323 323 324 326 326 326 330 335 338 339 341 344 346 348 349 348 347 347 347 348 348 348 348 347 346 345 344 344 343 343 342 342 341 341 341 340 340 339 339 339 339 337 336 335 333 332 331 330 330 329 327 326 324 322 321 321 320 319 318 315 313 312 311 310 310 311
312 313 314 315 316 315 313 314 316 319 321 320 321 321 321 322 322 323 322 322 322 322 325 328 328 329 332 336 337 339 343 346 349 349 348 348 347 347 347 348 348 348 347 346 345 345 344 343 343 342 342 341 341 340 341 340 339 338 339 338 337 335 335 333 332 331 330 329 328 327 326 323 321 320 320 319 318 316 314 313 311 311 310 310 310
312 313 314 315 316 315 314 315 316 318 319 320 320 320 320 321 322 322 322 320 320 322 324 327 329 330 332 333 333 334 337 341 346 348 349 348 347 346 347 347 347 348 347 347 345 345 344 343 343 343 342 342 341 341 341 340 339 338 338 338 336 335 334 333 331 330 329 329 328 327 325 322 320 319 319 319 318 316 314 312 311 311 310 309 309
312 312 313 314 315 315 316 315 315 316 317 319 320 320 321 322 323 324 323 320 319 321 324 326 328 330 332 333 332 332 333 335 340 344 347 348 347 346 346 346 347 347 347 347 346 345 344 344 343 343 342 342 342 341 341 340 340 339 338 337 335 334 333 332 331 330 329 328 326 326 324 322 320 319 318 317 317 315 313 312 310 310 309 308 308
314 313 314 314 315 316 317 317 317 317 318 318 319 320 322 325 325 325 324 322 321 322 323 325 326 327 330 332 333 333 333 334 336 339 343 345 346 346 346 346 346 347 347 347 346 345 344 344 343 343 343 342 342 341 341 341 340 339 337 336 335 333 332 331 330 329 328 327 326 325 324 322 319 318 317 316 315 314 313 311 310 309 308 307 307
315 314 314 314 315 316 317 317 318 319 319 319 321 322 325 326 326 326 326 324 323 323 323 323 324 324 326 330 331 333 333 333 335 336 337 340 343 346 346 345 346 346 347 347 346 345 344 344 343 343 343 342 342 342 341 341 340 339 337 336 334 332 331 330 329 327 326 325 325 323 322 321 319 318 317 316 314 313 312 311 309 308 307 306 306
316 315 315 315 316 316 316 317 318 319 320 321 323 325 325 326 326 327 326 325 325 325 324 324 324 323 324 327 330 333 333 333 334 334 334 335 339 343 344 345 345 346 345 345 344 344 344 344 343 343 343 342 342 342 341 341 340 340 337 335 334 332 330 329 328 326 324 323 322 321 320 319 319 318 316 315 314 313 312 311 309 307 307 306 306
316 316 316 315 316 317 317 317 317 318 319 320 322 324 324 325 325 325 325 325 326 326 325 325 324 323 325 330 333 335 334 333 332 333 335 335 336 338 341 343 345 345 343 342 342 343 344 344 343 343 342 342 341 341 341 341 340 340 338 335 333 332 331 329 327 325 324 322 321 320 318 318 318 318 316 315 314 313 312 311 309 308 307 306 305
318 318 317 316 316 317 317 317 318 319 319 319 320 322 322 323 323 323 324 325 325 326 325 324 324 326 330 334 336 336 335 333 332 332 333 334 334 336 338 340 342 344 342 337 336 337 340 342 343 343 342 342 342 341 341 340 340 339 337 335 334 332 331 329 327 325 323 322 321 319 318 317 318 317 316 315 314 313 311 310 309 309 307 305 303
319 320 319 318 319 319 318 318 318 318 319 318 319 320 322 322 323 324 325 326 326 326 325 325 328 333 335 336 336 336 335 334 333 332 332 333 334 335 336 337 338 340 339 334 333 334 336 339 341 342 342 341 341 341 340 340 340 338 337 335 334 332 331 329 327 326 323 321 320 319 318 317 318 317 316 315 314 313 311 309 308 307 305 303 301
319 319 319 319 320 320 320 320 320 320 321 322 321 323 324 324 325 326 327 328 327 328 329 331 334 336 336 335 335 336 334 333 333 332 331 332 334 335 335 334 332 333 333 333 334 335 334 335 338 340 341 341 340 339 338 339 339 338 336 334 333 332 331 330 328 326 324 322 320 319 318 318 318 317 316 315 314 312 310 308 307 305 303 302 300
318 319 319 319 320 320 320 320 319 319 321 324 325 326 326 326 327 328 329 328 328 330 334 336 336 334 334 334 333 334 333 332 332 332 330 330 332 333 333 332 332 331 331 331 333 334 333 333 333 335 337 339 338 337 336 337 338 337 336 333 332 332 331 330 328 326 324 322 321 320 318 318 318 317 315 313 312 311 309 307 306 304 303 302 300
317 318 318 318 319 320 320 319 318 318 320 323 326 327 327 327 328 328 328 328 328 330 334 335 334 333 333 332 332 332 332 331 332 332 330 330 332 331 330 330 331 332 330 330 332 333 333 332 332 333 335 336 335 334 333 333 334 335 334 332 331 331 331 330 328 326 323 322 321 320 319 318 317 315 314 312 311 309 307 307 306 305 304 302 300
316 317 316 316 317 318 319 319 318 318 320 323 325 325 326 326 327 328 329 328 329 331 333 333 333 333 332 332 331 331 331 331 331 329 328 330 332 331 330 330 330 331 331 331 331 332 332 332 332 333 334 334 332 329 328 328 327 327 328 328 329 329 330 329 327 324 322 320 319 318 318 318 316 314 313 312 309 307 307 307 306 305 303 302 302
315 315 315 315 314 315 318 320 320 320 320 321 323 323 324 325 326 326 327 328 328 329 331 332 332 332 331 331 331 330 330 330 329 327 326 328 331 332 331 331 331 331 331 331 331 331 330 331 332 333 334 332 329 326 326 326 326 324 324 324 325 326 326 326 324 322 320 318 318 317 316 314 313 312 310 308 307 306 307 307 306 304 304 305 305
314 315 314 313 313 313 315 317 319 320 320 321 322 324 324 324 325 326 328 328 328 329 329 330 331 331 330 330 329 329 329 329 329 328 327 328 330 331 332 332 332 332 332 331 332 331 330 329 331 333 333 331 327 327 328 329 328 327 325 323 322 322 323 322 322 320 319 317 315 314 312 310 309 309 307 306 305 305 305 306 306 306 306 306 306
313 313 313 312 311 311 311 312 314 317 320 321 321 323 323 323 323 325 326 327 328 329 330 331 331 330 330 328 327 327 327 328 329 328 328 329 331 332 333 333 333 333 333 332 332 332 330 330 331 332 333 332 330 330 330 327 325 324 324 323 323 323 322 320 320 319 318 315 313 310 308 307 307 307 306 305 304 303 303 303 305 305 305 305 305
312 312 312 310 309 309 309 309 310 312 316 319 319 320 320 321 322 323 324 325 325 326 327 330 330 330 329 328 327 326 326 327 328 328 328 330 331 332 333 334 334 334 333 333 333 332 331 332 333 333 333 333 332 332 330 326 324 324 325 326 326 324 322 320 320 318 316 314 311 308 306 306 307 306 306 305 304 303 302 302 303 303 304 304 304
Wind_Speed
16 24 31 34 36 38 37 36 38 37 36 36 38 42 43 42 39 39 41 41 41 40 38 36 32 29 28 28 28 30 31 28 27 28 26 25 24 24 25 24 22 25 28 24 24 27 23 20 21 22 23 22 22 23 23 21 20 18 16 16 15 14 15 14 15 18 18 14 11 11 11 12 11 12 12 10 11 15 16 14 12 12 11 11 13
14 18 25 31 34 35 36 34 36 35 35 36 39 43 45 43 42 42 42 43 43 43 42 40 37 34 31 29 28 31 32 31 29 27 26 27 25 24 26 26 22 25 29 26 26 28 26 22 22 23 24 24 22 22 23 21 19 18 17 17 16 15 17 18 19 19 17 15 13 8 6 9 11 12 14 12 11 14 16 15 15 14 13 13 15
13 14 18 26 30 33 33 32 35 37 37 39 39 42 44 44 42 42 44 45 44 43 42 41 39 35 32 29 27 29 32 31 29 26 25 27 27 25 27 27 24 26 29 28 27 28 28 25 23 22 24 24 23 22 21 20 19 19 19 19 17 16 17 20 22 20 17 17 13 6 3 5 6 10 15 16 13 14 17 17 15 16 15 15 16
15 15 14 19 25 30 31 31 34 34 34 36 36 36 37 41 42 43 45 45 43 43 42 40 38 35 32 28 24 26 30 29 28 26 25 27 28 27 29 29 26 27 30 29 28 28 27 26 24 23 24 25 24 24 23 22 22 21 20 20 19 19 18 21 23 21 20 19 10 3 3 3 2 8 14 20 18 14 16 18 16 17 17 17 18
16 17 16 16 19 26 31 32 33 34 34 36 38 37 36 39 43 44 45 44 43 43 42 39 36 33 31 27 21 23 28 28 29 29 26 27 31 29 30 31 28 28 31 31 30 29 27 27 26 24 24 25 24 24 24 24 24 23 21 21 22 22 22 22 24 22 22 23 16 7 4 2 3 6 8 15 21 18 17 19 19 19 18 18 20
11 16 17 17 19 25 30 32 33 34 37 40 42 43 41 41 42 42 42 43 43 43 41 39 37 35 33 30 26 26 28 29 31 32 29 29 33 31 30 32 31 30 31 32 31 30 28 27 27 25 24 25 25 24 25 25 25 24 22 22 22 24 24 23 25 25 23 24 21 12 8 4 3 7 5 4 15 20 18 19 21 21 19 19 22
8 11 15 17 19 22 25 31 34 34 37 40 41 43 43 43 42 42 41 42 42 41 41 40 38 36 36 34 31 29 28 30 32 32 28 29 33 32 30 32 33 32 32 32 32 31 30 28 27 26 25 26 26 25 26 26 26 25 23 23 22 24 26 25 26 27 25 24 23 18 12 7 4 7 7 2 5 12 17 19 21 22 20 19 22
7 10 13 16 18 21 25 32 37 38 40 40 40 41 43 44 44 44 42 41 41 42 43 42 40 39 38 35 32 30 30 29 31 32 28 27 33 34 31 32 34 33 32 32 33 31 30 29 28 28 26 26 27 27 27 27 26 26 24 24 24 25 27 27 27 28 27 25 25 23 19 14 10 9 11 9 5 3 10 14 18 21 23 22 21
7 10 15 17 18 24 30 34 37 39 40 40 41 41 42 43 43 43 42 41 41 42 44 43 42 40 38 35 32 31 30 28 29 32 29 27 33 35 33 32 33 34 33 32 33 32 31 30 29 29 28 27 28 28 28 27 26 27 27 26 27 27 27 27 27 30 31 28 25 26 24 20 16 13 13 12 8 5 5 6 12 16 20 24 24
7 9 15 18 22 28 32 34 35 36 38 40 40 40 41 41 41 42 41 40 41 42 44 43 42 39 37 37 35 33 32 28 27 31 30 28 32 35 34 33 33 34 34 33 33 33 33 32 30 30 31 29 28 29 29 28 27 28 28 28 29 28 28 28 26 28 32 32 28 26 25 20 16 14 14 13 11 9 6 6 12 14 14 22 27
8 6 10 15 21 28 30 31 33 36 37 39 38 39 40 40 40 41 40 40 41 42 44 43 41 40 40 40 37 34 34 32 29 30 31 30 33 35 36 35 34 34 35 34 34 34 34 34 32 31 32 31 29 29 29 29 28 28 28 29 30 29 28 28 26 26 29 32 30 28 26 24 19 16 16 17 12 9 6 5 13 18 17 22 27
9 6 7 11 16 21 25 28 32 35 36 36 36 36 37 38 40 40 39 40 41 41 43 43 41 41 41 41 39 35 35 35 33 32 33 32 34 35 35 35 35 34 35 36 36 35 35 35 34 33 33 33 32 29 29 30 29 29 29 30 30 30 29 28 27 27 27 30 31 29 28 27 25 22 21 20 17 15 11 6 10 16 16 19 24
9 7 6 9 12 14 16 22 26 29 33 37 38 36 35 36 39 40 40 41 41 42 43 43 42 42 41 41 41 38 37 37 36 34 34 33 33 34 36 36 36 36 37 38 39 38 36 35 35 35 34 34 34 32 29 30 30 30 30 31 31 31 30 29 30 29 28 29 30 30 28 26 26 25 22 20 19 18 15 10 11 14 13 15 19
9 8 7 7 11 12 13 18 22 25 30 34 36 38 37 36 37 39 41 42 42 42 44 44 44 44 43 43 42 40 38 38 37 36 36 36 34 35 37 38 38 39 40 40 40 39 38 37 36 36 34 32 32 33 31 30 31 31 31 32 32 32 32 31 31 30 29 29 28 28 28 27 26 24 21 19 19 17 16 12 10 11 10 10 13
8 10 10 7 11 13 16 20 22 26 31 33 35 37 37 36 38 39 38 40 41 41 43 44 45 44 43 42 41 40 39 39 39 37 37 38 37 36 37 38 39 40 40 40 39 39 39 38 36 36 35 33 31 32 31 31 32 32 32 32 32 32 33 33 32 30 30 29 28 27 27 26 26 24 21 19 18 17 16 15 11 7 4 2 6
7 10 11 7 6 9 14 20 22 25 28 30 33 36 37 37 39 41 41 41 42 42 42 43 44 45 43 41 40 40 39 38 38 37 37 39 40 38 37 39 40 39 38 38 39 39 40 38 37 36 36 34 32 31 32 32 31 32 33 31 31 32 33 33 32 31 30 30 29 28 27 27 26 26 24 21 20 18 17 16 14 12 7 2 2
7 7 6 4 3 3 8 14 19 23 26 29 32 36 39 40 40 41 43 43 44 45 44 44 44 44 43 42 40 40 39 38 38 39 39 39 40 40 39 38 38 38 38 38 39 40 40 39 38 37 36 36 33 32 33 34 32 32 33 32 32 32 33 33 32 31 31 30 29 28 28 27 26 25 25 24 22 21 20 17 15 14 12 6 3
11 8 5 3 1 4 7 12 19 26 28 31 35 39 40 42 45 45 44 43 44 45 44 44 44 45 44 42 40 39 39 39 39 40 40 37 38 40 39 38 39 39 38 38 39 40 40 40 38 37 36 37 36 33 32 34 34 32 33 33 32 33 33 33 32 32 31 29 29 28 27 26 25 24 24 23 22 22 22 20 17 16 15 12 8
12 11 8 5 3 3 5 9 18 26 28 29 34 39 41 41 43 46 47 48 47 46 45 45 44 44 43 42 41 39 39 40 39 38 38 37 37 39 40 41 40 40 39 38 38 40 41 40 39 37 37 37 37 35 33 34 35 34 33 33 32 33 34 34 33 32 31 29 28 26 25 24 22 22 22 22 21 21 22 21 20 19 18 16 13
13 12 10 6 5 4 3 2 7 18 27 30 32 33 39 45 46 46 47 48 48 47 46 45 44 42 40 39 39 39 39 40 40 38 37 37 38 40 41 41 40 40 40 39 39 40 41 41 40 37 37 37 37 37 35 34 35 35 35 34 34 34 34 34 33 32 31 29 28 26 25 23 22 22 24 24 22 21 21 21 21 21 20 17 15
13 13 11 7 5 5 5 6 4 8 17 23 24 23 23 26 35 42 45 43 43 44 44 42 42 40 38 37 37 38 38 39 40 39 38 37 38 40 41 41 40 40 41 40 40 40 41 41 40 38 37 37 37 37 36 35 35 35 35 35 35 35 35 34 33 32 30 29 28 27 26 24 24 24 25 25 24 22 22 22 21 21 21 18 16
11 12 12 7 4 5 7 9 7 2 9 15 22 23 20 17 12 19 29 34 35 36 37 37 37 37 37 37 37 37 37 38 39 39 39 38 37 39 41 40 40 40 41 42 42 41 40 40 40 39 38 37 37 38 37 36 36 35 35 35 36 36 35 34 33 32 31 30 29 28 27 25 24 24 24 25 25 24 23 23 22 23 22 20 19
7 10 13 10 5 5 6 9 9 4 6 10 15 19 21 22 19 16 19 25 29 29 29 30 31 32 34 35 35 36 37 37 37 38 40 40 39 39 40 40 41 41 41 42 42 41 40 39 39 40 39 37 37 38 38 37 37 36 36 36 36 37 36 35 34 34 33 32 30 28 27 25 25 25 25 25 25 25 24 24 24 24 23 21 19
6 7 9 10 8 5 5 6 8 9 7 6 11 16 19 24 27 27 28 29 29 31 31 30 31 32 32 33 34 35 36 37 37 38 39 41 41 40 40 40 41 41 41 41 41 41 40 39 40 40 40 39 38 38 38 38 38 38 37 37 36 36 36 37 36 36 35 33 31 29 27 26 26 27 28 27 26 24 24 24 24 23 22 20 18
9 8 7 9 12 8 3 2 4 9 13 9 7 18 24 25 26 27 35 38 34 33 34 34 34 33 33 34 34 35 36 38 39 39 39 41 42 42 41 40 41 41 41 41 41 41 40 40 42 42 41 40 39 38 38 39 39 38 38 37 37 37 36 37 37 37 36 34 32 31 29 27 26 27 27 27 26 25 24 24 22 21 20 19 18
15 11 7 8 11 10 7 5 5 8 12 14 11 9 22 31 33 30 31 35 36 34 34 36 36 35 35 36 37 37 38 39 40 40 40 41 42 43 42 41 41 41 41 41 41 42 42 42 43 43 41 41 40 39 39 39 39 39 38 37 37 38 37 37 37 37 36 35 33 32 31 30 29 27 26 25 25 25 24 22 21 20 18 18 19
17 12 8 6 8 12 13 9 8 9 11 12 14 12 10 19 30 32 31 29 30 30 32 36 37 38 38 39 39 40 40 40 40 41 41 42 42 42 41 41 41 41 41 41 41 42 43 44 44 43 42 42 41 39 39 39 39 39 39 38 38 38 38 37 37 36 35 35 34 33 32 32 32 31 29 26 25 25 24 22 21 20 18 19 20
18 14 10 8 8 10 12 10 11 13 13 13 14 16 16 13 12 17 22 25 28 29 30 32 35 36 38 41 42 43 43 42 42 42 43 43 43 41 40 40 41 41 42 42 43 43 43 43 43 42 42 42 41 41 41 40 40 40 40 39 38 38 38 37 36 36 35 34 33 33 33 32 32 33 32 30 28 27 25 23 21 21 21 22 22
18 17 15 12 9 8 9 10 12 14 14 14 15 16 18 20 20 17 14 16 23 29 31 32 32 33 36 39 42 43 42 41 41 41 42 44 43 41 41 41 40 41 42 43 44 44 43 41 42 42 41 41 42 43 43 43 41 41 41 40 39 39 39 37 36 35 36 35 34 33 33 31 30 30 30 29 29 29 28 26 24 24 24 23 22
16 17 17 15 11 8 8 10 11 14 15 15 15 15 15 19 22 21 20 17 14 22 31 33 34 36 38 38 39 41 40 38 37 39 41 42 42 41 41 40 41 42 43 43 43 43 42 42 42 42 41 42 44 45 46 45 44 42 41 40 39 39 39 38 36 35 35 35 35 34 32 30 29 28 27 27 28 29 29 28 27 26 26 25 25
17 16 17 17 12 8 7 9 10 13 15 17 18 18 16 15 17 20 22 24 20 16 23 30 35 39 40 39 38 39 39 38 37 38 39 40 40 40 40 40 41 42 42 42 42 42 43 44 44 43 42 43 45 47 47 46 45 45 44 41 40 39 39 39 37 35 35 35 34 34 31 30 28 27 27 27 28 28 28 27 27 27 27 27 27
19 17 17 17 15 11 8 8 10 14 17 17 18 18 14 12 14 17 20 22 23 20 18 23 29 35 38 39 39 39 38 38 38 38 38 39 38 38 39 40 41 42 42 42 42 43 43 44 44 43 43 44 46 47 47 46 46 47 46 44 41 40 38 38 38 37 36 35 34 32 31 29 29 28 28 28 28 27 27 26 27 27 27 27 27
20 19 18 17 15 12 9 10 12 15 16 15 12 8 8 10 13 15 16 18 21 22 22 21 23 29 34 37 38 38 37 37 37 38 39 38 38 38 39 40 41 42 42 42 42 44 44 44 44 43 44 46 46 47 47 47 46 47 48 46 42 41 40 39 39 38 37 36 35 33 31 30 29 29 29 29 29 28 27 27 27 27 26 26 25
19 18 18 16 15 12 12 17 19 15 10 9 7 5 6 8 11 15 17 17 19 22 23 22 21 23 29 36 39 39 39 38 37 37 38 37 38 38 39 40 42 42 42 42 42 43 44 44 44 44 45 46 47 47 48 49 47 47 50 48 43 42 41 40 39 39 38 37 37 36 34 32 31 31 31 31 31 30 29 28 28 28 27 26 25
19 18 17 15 14 12 12 17 19 14 8 7 8 9 9 10 11 15 18 18 20 22 26 26 23 21 24 30 33 35 38 40 39 38 38 38 38 39 39 40 40 41 42 43 43 44 44 45 45 45 45 44 46 47 48 49 49 48 51 49 44 42 42 40 40 40 39 39 39 38 36 34 33 34 33 33 33 32 31 30 29 29 28 27 26
18 16 15 14 13 12 14 17 19 18 15 12 11 12 12 12 13 15 17 19 21 22 26 28 25 23 24 24 27 29 31 34 37 38 38 38 38 38 39 40 40 41 42 43 43 44 44 45 46 46 44 43 45 46 47 49 49 49 51 50 44 42 42 41 40 40 39 40 40 39 38 36 36 36 35 35 34 33 32 32 31 29 28 27 26
17 17 18 20 19 17 18 21 22 22 21 18 15 13 13 13 13 13 15 17 20 23 26 28 27 26 24 22 27 32 33 32 32 34 37 39 40 39 39 40 39 39 40 41 42 43 44 45 46 45 44 44 45 46 47 49 49 50 51 49 44 42 41 40 41 40 39 39 39 40 39 37 37 37 36 36 35 35 34 33 32 30 28 27 26
15 17 18 20 21 20 20 22 21 19 20 22 21 16 13 12 13 13 13 15 19 25 29 28 28 29 27 22 25 33 38 37 33 32 34 36 37 38 39 40 41 40 40 42 42 42 43 45 46 47 47 46 45 46 48 49 49 51 53 50 44 40 39 39 39 39 39 39 39 40 40 39 38 38 38 37 37 36 36 35 34 31 29 28 27
13 15 16 19 22 21 22 24 21 16 16 19 20 16 12 13 14 15 14 16 21 27 29 27 27 30 30 28 25 28 36 41 40 36 36 37 38 39 38 39 40 41 41 41 41 41 41 43 45 48 49 47 45 45 47 48 49 51 53 50 44 40 38 38 37 37 37 38 39 40 40 40 39 39 38 38 38 38 38 37 36 33 30 30 31
12 15 17 20 22 20 20 22 22 18 14 14 14 14 14 16 18 17 17 19 24 28 29 29 29 30 32 32 30 25 26 36 42 43 42 39 38 38 39 39 39 40 40 39 40 40 40 41 42 45 46 46 44 44 46 49 50 51 54 51 45 42 40 38 37 36 35 36 38 39 40 40 39 38 38 38 39 39 39 38 38 36 35 34 34
11 15 18 19 20 20 20 20 19 16 13 12 11 12 14 15 15 16 18 22 26 29 29 29 30 32 32 29 26 23 21 25 33 38 41 41 38 35 35 35 36 37 35 35 36 37 38 39 41 42 43 44 45 46 47 48 50 52 55 53 47 45 44 40 37 36 36 37 37 38 39 40 38 38 38 38 39 39 39 39 39 39 38 37 35
16 14 14 16 18 20 22 22 21 18 16 15 15 14 15 16 16 18 23 26 27 27 27 28 30 31 29 23 20 21 22 24 27 29 32 37 41 39 36 34 33 33 32 31 32 33 34 37 39 40 42 42 44 47 48 49 50 53 57 57 51 47 45 41 38 36 36 37 39 39 41 41 39 38 38 39 39 39 39 40 39 38 37 36 35
17 16 17 16 15 17 19 20 20 19 18 20 21 19 17 15 16 19 22 24 24 24 25 27 26 23 20 17 18 20 22 26 30 31 29 29 32 34 33 30 28 27 28 31 33 33 32 33 35 37 40 41 42 46 47 49 51 53 57 60 55 48 46 44 41 39 38 37 38 40 41 42 41 40 40 39 39 39 40 40 38 36 35 34 34
19 19 21 19 15 15 17 18 18 17 17 18 18 15 12 11 12 15 19 19 20 20 19 19 18 16 16 19 22 22 21 23 28 33 32 29 29 31 30 28 26 25 23 25 29 30 28 27 30 32 35 36 39 43 46 48 52 54 58 61 56 49 48 46 42 40 39 39 40 41 42 43 42 42 41 40 39 39 40 39 36 34 33 33 32
25 25 25 22 19 17 16 16 18 20 20 20 17 12 10 11 14 18 20 20 19 16 13 13 15 17 19 20 21 21 20 18 21 27 31 31 31 29 26 25 26 27 25 24 25 27 27 26 27 29 30 32 35 40 43 47 51 54 58 60 56 49 49 48 43 40 39 41 43 44 43 43 44 43 41 39 39 40 40 39 36 33 33 32 32
27 27 28 26 23 21 16 14 17 20 19 20 20 17 15 15 16 19 20 21 20 18 17 18 19 18 18 17 18 19 19 18 18 20 24 29 32 31 27 25 24 23 22 21 22 23 25 25 26 28 30 30 32 36 40 44 50 54 57 60 56 49 48 48 44 40 39 41 43 44 44 45 45 43 41 40 41 41 40 37 34 33 32 32 33
27 27 28 26 24 22 16 12 15 19 19 19 19 17 16 15 16 17 17 17 18 18 18 18 18 16 13 13 15 18 20 21 20 17 18 23 29 31 30 29 27 23 20 19 20 21 22 23 24 28 31 29 29 32 35 40 46 50 53 57 55 48 45 45 42 39 40 41 42 42 44 45 45 42 40 40 40 40 38 35 34 33 32 33 34
29 30 29 26 24 23 18 10 11 14 17 17 16 14 14 14 15 15 15 16 17 17 17 17 16 14 12 11 13 17 19 21 20 18 22 26 28 28 28 29 30 30 27 24 24 23 22 23 24 27 30 26 26 31 35 40 46 49 50 51 50 45 42 41 39 38 38 39 39 39 40 41 41 39 37 37 38 38 36 35 35 34 34 34 35
29 30 29 26 24 25 24 18 14 13 12 11 12 11 9 10 11 12 12 13 14 15 16 16 14 12 11 12 13 15 17 19 19 20 26 31 32 33 32 31 34 37 37 35 34 32 31 32 33 33 31 24 23 31 40 44 47 50 50 49 47 43 38 36 37 38 38 36 36 37 37 37 37 37 36 34 35 36 35 35 36 36 35 34 35
29 29 30 30 28 27 28 29 28 22 13 8 10 11 10 11 12 12 11 11 11 12 13 13 12 12 12 13 14 15 15 17 19 22 26 30 31 33 35 34 36 40 42 42 41 40 39 40 39 39 39 34 31 35 39 40 41 45 47 47 47 45 39 34 36 38 39 38 36 35 34 36 37 37 35 33 33 34 32 31 32 34 35 35 35
26 26 27 31 32 31 31 32 35 33 21 12 13 16 16 17 17 15 13 12 11 12 11 11 11 13 14 14 14 14 14 15 17 19 22 24 24 26 32 37 38 40 42 43 44 42 41 39 36 34 35 36 36 37 37 37 38 41 44 45 48 48 44 40 40 41 39 38 36 33 32 34 36 35 34 34 34 34 32 30 28 29 32 34 35
Wind_Direction
188 184 185 187 188 187 186 186 187 186 189 188 179 173 175 180 184 187 189 190 189 188 191 195 196 195 196 197 196 196 198 200 199 203 210 209 207 209 211 211 207 200 198 205 204 195 194 194 191 193 195 195 193 194 202 208 208 209 212 209 201 191 180 179 187 179 165 159 161 170 179 185 192 200 202 195 191 192 193 197 200 199 203 216 223
187 181 182 184 186 187 185 184 185 184 186 188 181 177 178 181 184 185 186 190 191 190 190 193 196 196 196 197 197 196 196 199 199 203 211 210 208 211 211 209 206 200 199 204 203 196 195 194 193 195 197 200 199 198 205 210 208 207 208 205 200 197 186 178 182 178 164 160 159 153 170 193 200 206 205 203 201 204 207 210 212 209 207 214 223
189 183 180 183 182 182 183 183 184 184 183 185 184 180 178 179 183 184 185 189 192 191 190 192 195 198 198 199 198 196 197 201 201 205 211 209 209 212 209 208 207 200 198 202 202 199 198 196 198 200 199 201 199 196 202 207 206 205 207 208 199 192 187 181 184 185 172 160 154 150 170 192 219 226 218 214 210 210 215 217 215 215 214 208 213
186 188 181 183 180 178 182 183 182 182 181 182 183 182 181 179 181 183 187 190 191 191 192 193 194 196 199 201 203 200 199 200 202 208 213 209 208 208 207 208 207 200 197 200 202 201 201 200 201 203 200 201 200 195 197 202 203 204 206 208 198 185 183 184 189 191 180 168 153 121 149 149 234 233 224 221 217 216 220 221 218 214 212 207 209
183 187 183 181 180 180 183 182 179 179 181 182 182 183 185 184 183 185 187 189 190 191 192 191 191 194 196 200 203 199 196 198 202 209 215 210 206 205 205 206 206 201 198 199 201 202 204 202 201 203 202 201 201 199 198 201 204 207 207 207 202 194 188 187 190 192 188 184 176 149 145 169 236 205 208 222 222 222 223 221 217 211 211 212 213
192 187 183 178 179 182 182 180 179 180 182 184 184 184 186 187 186 185 186 188 190 191 190 189 189 191 193 195 196 192 192 198 202 207 212 209 204 203 204 205 204 201 199 200 202 204 205 204 202 203 204 202 202 202 201 202 207 211 209 207 207 204 198 191 191 193 193 194 192 190 185 184 192 171 156 226 224 225 228 221 215 212 213 216 218
209 193 187 181 178 179 179 179 180 182 184 185 186 186 186 186 187 186 186 188 189 189 189 188 189 191 194 197 197 193 193 200 204 208 211 208 203 202 204 203 202 201 200 201 204 206 207 206 205 204 205 204 203 203 203 204 208 211 211 210 209 207 203 197 194 195 197 202 207 210 202 202 214 180 169 160 203 224 230 225 219 216 215 218 221
215 195 191 187 182 180 179 180 182 184 185 184 185 187 187 186 187 187 188 188 189 190 189 189 191 192 195 199 200 199 198 200 203 207 211 208 201 200 203 202 201 201 201 202 204 207 208 208 207 204 204 206 204 204 205 205 207 209 210 210 208 208 206 202 199 197 200 205 209 213 216 226 231 201 190 184 150 199 225 225 224 219 216 219 223
239 200 194 191 188 184 182 182 185 185 184 184 185 187 188 187 187 187 188 189 190 190 190 192 193 193 194 197 202 203 200 198 200 204 209 206 199 199 201 201 201 201 202 203 205 207 209 211 209 205 204 206 206 206 206 205 207 207 207 207 206 208 208 205 203 201 203 205 206 211 221 229 229 222 212 196 177 179 204 221 220 212 215 221 224
266 214 199 194 189 186 183 183 184 184 184 185 186 187 187 187 187 187 188 189 190 191 191 193 194 195 195 197 201 203 199 196 197 201 206 204 198 198 201 201 200 201 203 204 206 208 209 212 212 207 204 206 207 206 205 204 207 209 207 206 206 207 208 208 211 210 208 208 207 209 215 219 218 222 221 207 192 188 192 209 207 198 205 220 223
275 237 208 199 190 186 184 184 183 183 185 185 185 187 187 187 186 187 189 190 191 192 192 193 194 196 197 198 201 200 196 193 194 199 204 203 199 199 201 202 202 203 204 206 208 209 210 212 214 210 206 205 206 206 205 204 206 209 208 206 206 208 210 212 216 217 213 211 211 212 214 214 211 211 216 215 208 196 191 198 206 204 205 216 222
270 257 216 200 194 190 188 188 186 183 182 183 185 187 186 187 186 186 189 191 192 193 193 193 194 197 198 198 201 200 194 192 194 199 203 203 202 201 200 201 203 205 206 208 209 210 211 211 212 212 209 207 206 206 206 205 206 207 207 205 205 207 210 212 212 213 213 212 212 215 217 219 218 218 218 218 219 216 207 194 203 207 211 223 227
262 253 217 192 197 199 192 193 190 183 181 181 182 185 186 188 188 187 189 192 192 193 193 193 195 199 200 199 201 199 195 195 197 199 204 206 204 201 200 199 201 205 207 209 210 210 211 211 211 211 211 210 208 207 206 205 206 206 206 206 205 206 207 208 209 210 212 212 213 215 216 218 221 223 225 225 226 223 215 211 211 206 209 223 227
262 255 236 187 184 196 194 194 192 187 185 183 181 182 185 188 189 190 191 192 193 193 194 195 196 200 201 201 201 198 195 197 200 201 204 207 206 202 201 200 201 204 206 208 209 209 211 212 212 210 210 212 211 209 207 207 207 206 207 207 207 207 207 208 210 211 212 213 213 213 214 216 219 221 226 227 224 220 214 215 216 210 210 207 207
270 266 261 214 178 183 188 191 193 191 188 186 184 182 183 186 189 192 192 193 194 194 196 196 197 200 202 202 200 197 196 198 201 204 204 205 207 205 203 202 203 205 207 208 208 209 210 212 214 212 210 211 213 211 208 207 207 206 206 207 208 208 208 209 211 212 213 213 214 215 215 216 219 219 222 224 223 224 221 218 216 214 229 207 182
274 270 274 255 182 182 192 188 190 196 191 187 185 183 184 187 190 192 193 194 195 195 197 198 197 199 202 203 200 197 197 198 201 206 207 206 207 206 206 206 207 208 208 209 209 209 210 211 213 213 211 211 213 213 211 208 206 205 205 207 208 208 208 208 211 212 213 214 215 217 218 219 221 222 224 226 226 230 232 229 224 214 211 224 199
284 275 293 327 90 161 225 205 193 196 193 190 191 188 187 189 190 193 194 194 196 196 198 199 198 200 203 203 200 198 198 199 202 208 210 208 206 207 208 208 208 209 209 209 209 210 211 211 212 212 212 212 212 214 213 211 209 206 205 206 207 208 207 208 210 211 213 215 216 218 220 221 223 224 227 229 228 232 233 230 227 219 210 196 182
280 271 278 320 97 153 208 214 210 210 202 194 195 193 192 192 191 193 195 195 196 198 198 199 199 200 201 201 199 198 199 201 204 209 211 210 207 207 208 208 209 209 209 208 209 209 210 211 211 212 212 212 212 212 213 212 211 208 207 208 209 208 207 207 210 212 213 214 216 218 220 222 225 226 228 228 228 231 231 228 229 229 225 215 203
294 282 266 259 245 201 204 209 212 217 216 211 205 198 193 195 194 193 194 196 197 197 198 199 200 200 200 200 199 199 200 204 207 210 211 211 209 208 207 208 209 209 208 208 208 208 209 210 211 212 212 211 211 212 213 212 211 210 208 208 209 209 207 207 209 212 213 214 216 218 219 221 222 223 223 223 224 226 226 227 231 234 234 231 224
323 311 291 275 276 283 296 289 222 214 214 215 215 208 198 195 196 195 195 196 196 196 197 198 199 201 201 199 200 201 202 205 208 211 212 212 211 209 208 208 209 208 208 208 208 209 209 210 211 212 211 211 210 212 213 213 211 211 209 208 208 208 207 207 209 212 214 215 216 216 217 218 219 219 219 221 222 223 224 228 232 236 238 235 230
332 332 327 324 330 345 25 27 345 222 208 205 210 226 233 215 200 197 196 194 194 195 196 198 199 200 201 201 201 203 204 206 209 211 213 213 213 212 210 208 208 207 207 208 209 210 210 210 210 211 212 211 211 211 212 212 211 210 210 209 208 207 207 208 209 211 213 213 212 212 215 219 221 221 222 224 225 224 226 230 234 237 238 234 228
324 326 327 331 355 15 27 22 8 245 215 211 206 218 249 272 253 217 203 194 194 196 196 198 200 200 201 202 203 205 206 208 209 210 212 213 213 213 211 209 207 207 207 207 209 210 210 210 210 212 212 211 211 211 211 211 211 210 210 209 208 207 206 206 207 208 209 208 209 211 215 220 222 224 226 229 229 225 227 232 232 231 231 229 227
314 321 318 316 345 26 14 357 355 334 234 218 205 202 214 230 239 241 225 202 195 199 201 201 202 202 203 204 205 207 209 210 210 210 211 212 213 213 212 210 208 207 207 208 209 210 210 210 211 212 213 212 211 210 210 210 211 211 210 209 208 208 206 205 205 205 204 204 207 211 216 219 222 225 227 228 228 227 229 229 226 222 221 222 225
296 309 310 307 317 352 4 344 339 327 298 219 188 191 205 220 218 207 207 206 196 196 202 204 205 206 206 205 207 209 210 212 213 212 212 212 213 214 213 211 209 208 207 208 209 210 209 209 211 212 212 212 211 210 209 210 210 211 211 209 208 208 208 207 206 205 204 206 209 212 215 217 219 223 226 227 226 223 221 218 217 217 219 221 223
303 301 307 309 306 307 310 302 309 312 310 299 212 188 196 223 234 214 199 198 195 195 198 201 204 206 206 206 208 209 210 212 213 214 213 213 213 214 214 212 210 208 208 208 208 208 208 208 210 212 212 212 211 210 209 210 210 211 212 211 209 207 208 207 206 206 207 209 211 213 214 214 214 216 219 221 219 215 213 214 216 218 220 224 225
306 294 287 298 299 296 290 275 272 283 291 298 291 220 192 202 220 229 217 202 197 198 197 198 201 203 204 206 207 209 211 212 213 214 214 214 214 214 214 212 211 209 209 208 207 207 208 209 211 213 213 212 211 210 210 210 210 211 211 211 210 208 208 207 207 207 209 211 212 214 215 215 214 214 214 214 213 213 214 215 217 218 218 221 225
303 288 273 281 288 290 289 277 266 271 274 280 288 288 251 204 203 217 224 215 205 201 197 196 199 200 202 206 207 209 212 213 213 214 214 215 215 215 214 213 212 210 209 208 207 207 209 209 211 213 214 213 211 210 211 211 210 210 211 210 209 208 208 208 208 209 210 213 215 216 217 217 218 220 221 220 217 217 218 218 219 217 214 217 221
305 294 281 279 276 277 282 280 275 268 265 272 278 282 288 281 245 225 221 215 210 206 201 198 199 200 201 205 208 210 212 213 214 214 214 214 214 214 214 214 214 212 210 209 208 209 209 209 210 212 214 213 211 210 211 212 211 210 210 209 208 207 207 209 210 211 212 214 216 218 219 220 221 222 225 226 225 223 221 218 217 213 210 213 214
307 304 296 281 265 264 273 279 281 276 270 272 274 275 280 284 287 282 263 232 214 208 206 204 204 206 207 208 209 211 213 214 214 215 215 214 213 212 213 214 214 213 212 211 211 210 209 209 210 212 214 213 211 210 211 211 211 209 207 207 207 206 206 208 209 210 212 214 215 217 218 220 221 221 224 227 227 226 221 215 210 208 208 210 204
302 303 301 288 267 259 269 275 276 275 275 274 270 272 277 278 280 284 285 280 247 213 207 207 208 213 215 215 214 215 216 217 217 218 217 215 212 211 211 213 215 214 213 212 211 210 209 209 210 212 213 212 211 211 212 212 211 208 205 204 205 205 206 207 207 207 209 211 213 215 217 220 222 223 224 224 222 221 219 216 213 210 210 207 199
295 295 299 295 281 265 264 271 271 268 270 274 275 272 268 270 280 286 289 290 284 249 217 209 210 214 217 218 217 218 220 220 220 220 219 217 213 210 210 212 215 215 214 213 211 210 210 210 211 212 212 211 211 212 212 212 212 209 205 203 203 203 205 206 206 206 207 208 210 214 217 219 220 221 221 220 218 216 216 217 217 216 214 212 205
291 291 294 294 291 287 278 267 269 276 277 275 275 279 284 295 304 305 303 302 299 288 257 230 219 217 216 217 218 218 220 221 219 219 220 219 215 211 210 212 214 216 215 213 211 211 211 211 212 212 212 211 212 212 211 211 212 209 205 203 202 202 204 206 206 206 206 206 209 212 214 214 215 216 215 214 213 213 214 213 213 214 215 215 214
287 287 288 289 290 291 288 284 277 275 278 276 268 274 303 323 323 316 315 318 318 311 293 267 244 228 221 218 218 218 219 220 218 217 219 218 216 213 211 211 213 215 215 214 212 211 211 212 212 212 213 213 213 212 210 210 212 210 206 203 202 202 204 206 206 206 206 207 208 209 208 208 210 212 211 210 208 208 208 207 207 209 210 211 213
284 281 280 281 285 288 295 300 288 267 258 275 278 281 302 313 316 313 312 316 320 318 307 290 273 253 235 224 220 218 217 218 217 216 217 217 216 215 213 212 212 213 214 214 213 212 211 212 212 213 213 214 214 214 212 212 213 211 207 204 201 201 204 206 206 206 206 206 206 206 205 204 205 207 208 207 205 203 201 201 202 203 204 206 207
286 284 279 271 272 279 290 299 294 275 251 260 275 285 293 297 300 303 305 306 308 312 308 297 286 277 259 239 227 223 219 216 216 215 215 216 216 216 215 214 213 213 213 214 213 213 212 212 213 214 214 214 215 215 213 213 214 211 206 203 201 201 203 205 206 205 205 205 206 207 207 205 204 204 206 205 203 201 198 198 198 199 200 203 205
278 279 281 280 280 282 280 282 287 285 273 257 257 269 277 282 287 287 290 294 296 299 299 293 285 280 273 256 242 240 235 225 218 214 213 214 215 215 214 214 214 214 214 215 214 214 213 212 213 214 215 216 216 216 214 212 212 210 204 200 200 200 201 203 203 203 204 205 205 207 208 206 204 204 204 205 203 201 198 197 197 196 198 200 202
270 269 274 281 284 288 288 282 278 278 273 261 252 255 260 267 274 274 275 282 286 284 282 282 280 277 273 259 243 242 244 240 230 220 215 214 214 214 214 213 214 214 214 214 215 214 214 213 214 214 214 216 217 216 214 212 211 207 201 198 198 199 199 201 202 201 202 202 204 206 207 206 205 204 203 203 203 201 199 198 196 194 193 194 197
261 263 266 274 281 287 293 288 277 273 275 266 254 249 249 252 258 260 259 264 271 269 266 267 271 274 273 262 242 232 233 237 237 230 224 221 215 213 214 213 213 214 215 215 214 215 215 214 214 214 214 215 217 217 215 211 209 206 201 198 198 198 197 199 200 200 200 200 202 206 208 207 206 205 203 202 202 201 199 198 196 192 190 191 193
259 262 263 269 276 281 288 287 277 275 284 271 252 242 240 243 248 250 245 243 250 256 259 262 268 273 274 270 258 238 226 226 230 231 231 230 223 216 213 214 214 215 216 216 215 214 215 215 215 215 215 215 216 217 215 211 209 206 202 198 197 196 196 197 197 197 197 198 201 204 207 208 207 205 203 202 202 202 201 200 197 192 189 192 196
256 260 265 270 274 275 279 278 268 265 277 273 254 241 235 237 242 245 243 244 249 256 264 268 271 273 273 271 269 260 235 222 223 226 228 230 230 224 216 212 214 216 216 217 217 215 215 217 217 216 216 215 216 217 215 211 209 207 201 197 195 195 195 196 195 194 193 194 197 200 203 206 207 205 203 203 205 205 204 202 199 195 195 199 201
300 275 269 270 271 270 271 273 270 271 277 275 262 246 240 243 250 252 254 256 260 264 267 270 273 273 268 262 261 263 252 229 224 227 226 224 228 232 228 218 215 216 215 216 219 218 216 217 218 218 218 216 216 218 216 211 209 207 201 197 196 196 196 194 193 192 192 192 193 196 197 201 205 206 204 204 207 209 208 206 203 203 207 208 204
345 323 301 289 281 277 274 272 274 278 280 282 276 260 252 256 257 256 260 264 266 268 269 273 274 266 257 254 258 262 260 250 240 238 235 227 223 228 233 229 222 217 212 211 219 224 222 219 218 218 219 217 216 219 218 210 207 206 202 198 198 199 197 194 191 192 193 193 193 194 195 197 203 207 206 206 208 210 210 210 209 210 213 212 207
356 351 342 330 311 300 295 288 282 278 275 275 268 255 249 252 253 260 270 273 274 277 281 281 274 264 259 267 276 274 267 259 248 242 242 238 230 227 229 231 230 223 210 205 212 221 226 226 222 218 218 218 216 218 218 212 207 206 202 200 200 200 198 195 193 194 194 193 193 194 195 196 202 207 208 207 208 209 209 210 210 210 211 210 208
354 354 350 342 327 315 315 318 315 312 308 295 275 257 256 262 271 287 294 290 286 290 290 279 267 267 277 283 284 281 271 260 248 239 234 236 235 230 224 225 231 233 223 211 211 214 219 227 229 223 218 216 215 216 216 213 208 205 203 201 200 200 200 198 197 197 196 194 194 195 195 196 202 208 209 206 205 206 207 208 207 206 206 205 204
351 352 350 344 333 321 318 323 324 323 325 321 311 305 308 303 300 302 299 292 288 284 274 260 253 258 267 273 279 280 270 256 244 233 227 226 229 230 225 221 223 226 224 222 218 214 213 220 228 229 224 217 212 213 213 211 209 206 203 201 200 202 202 200 198 199 197 194 195 197 197 199 204 207 205 202 202 204 205 205 203 201 200 199 199
350 352 351 347 341 330 319 317 318 315 313 310 305 304 306 302 299 297 289 283 278 265 250 248 252 255 261 268 275 276 270 258 241 225 219 221 223 224 225 225 225 224 224 228 228 220 214 215 220 226 227 218 209 208 209 207 206 205 202 200 200 202 204 201 199 199 197 195 196 198 198 200 202 203 200 198 198 201 202 201 199 197 197 197 196
347 351 352 352 351 339 318 298 301 305 304 300 298 301 303 298 297 299 293 284 278 267 253 249 254 262 272 276 277 278 275 265 250 231 225 231 229 221 215 215 218 218 217 225 233 229 222 216 215 221 225 218 204 202 205 203 201 200 200 199 199 200 200 199 197 196 194 193 195 197 198 199 199 198 197 196 196 196 196 196 195 195 195 195 195
346 350 354 356 357 349 336 311 290 296 302 303 303 308 312 304 300 306 305 298 295 290 277 268 270 278 287 287 281 280 278 271 257 234 224 230 234 227 217 212 214 215 210 209 217 225 227 225 221 221 222 214 198 197 203 203 200 198 197 197 198 198 196 193 191 190 189 189 191 192 193 193 191 189 188 190 191 191 191 192 193 193 193 193 195
347 349 354 358 357 354 351 344 327 309 306 317 326 331 335 330 327 329 323 311 308 302 290 283 281 283 288 291 285 279 275 270 259 240 228 228 229 227 222 216 216 218 215 210 211 216 219 221 222 221 218 211 199 200 207 208 203 198 196 195 196 197 194 189 189 188 183 180 182 184 183 182 181 180 182 185 188 189 189 189 191 191 191 193 194
349 349 356 360 358 358 358 354 346 335 324 333 353 359 4 1 353 350 347 342 340 331 311 295 287 281 284 290 287 282 278 269 255 243 237 236 232 227 222 219 217 216 214 212 212 214 216 217 218 217 217 215 209 207 209 209 203 198 196 195 195 196 193 189 190 188 182 177 176 177 177 177 177 179 183 185 187 188 188 188 190 191 191 191 193
351 351 359 1 359 359 360 357 351 344 337 344 6 8 7 3 356 352 355 1 10 6 346 322 304 293 290 290 285 280 279 273 260 248 240 238 235 228 224 224 223 220 216 214 214 214 216 218 217 216 215 215 213 210 208 206 201 198 197 198 198 197 194 192 191 186 178 175 176 175 176 179 180 181 185 187 186 186 186 187 192 195 194 193 194